GLOBALSTAR M093 [+] (39073 NORAD) Tracking and Keplerian Element Data

This shows tracking and keplerian element data for the satellite.

Feedback or suggestion? Click here.




ElementValue
Catalog39073
NameGLOBALSTAR M093 [+]
Epoch Orbit26748
Epoch Day322.7329161
Epoch Year2018
RAAN24.9251
Inclination51.9832
Eccentricity3.77E-05
Argument of Perigee21.9484
Mean Anonmoly338.1398
Mean Motion12.62262938
Decay Rate-1E-06
L11 39073U 13005B 18322.73291610 -.00000100 00000-0 21768-4 0 9996
L22 39073 51.9832 24.9251 0000377 21.9484 338.1398 12.62262938267483

Live tracking and technical data element details for GLOBALSTAR M093 [+] (NORAD 39073). GLOBALSTAR M093 [+] can be tracked NOW for your location showing map with azimuth and elevation plus other details from your city location.

Track the satellite on the map from your city or location and see movement details for azimuth, elevation, latitude, longitude, range, height, and movement on the map or in text.







IsCatalogInMostPopularTable: catalog: 39073, numindb: 93
Update: records affected: 1



GetName: 39073 GLOBALSTAR M093 [+]

Hit Count: updated at: Mon, 19 Nov 2018 23:42:42 GMT